Weather History for Meeker, CO

Change the Weather History Date:

Sunday, February 17, 2013

  Actual Average Record
Temperature  
Mean Temperature 26 °F 25 °F  
Max Temperature 43 °F 38 °F 48 °F (2004)
Min Temperature 9 °F 12 °F 1 °F (2005)
Degree Days  
Heating Degree Days 39 40  
Month to date heating degree days 744 711  
Since 1 July heating degree days 5482 5392  
Cooling Degree Days 0 0  
Month to date cooling degree days 0 0  
Year to date cooling degree days 0 0  
Moisture  
Dew Point 14 °F    
Average Humidity 55    
Maximum Humidity 80    
Minimum Humidity 29    
Precipitation  
Precipitation T in 0.04 in 0.22 in (2011)
Month to date precipitation 0.19 0.59  
Year to date precipitation 0.88 1.46  
Sea Level Pressure  
Sea Level Pressure 29.92 in    
Wind  
Wind Speed 6 mph (NNW)    
Max Wind Speed 23 mph    
Max Gust Speed 31 mph    
Visibility 8 miles    
Events Snow    
T = Trace of Precipitation, MM = Missing Value Source: NWS Daily Summary

Daily Weather History Graph

Daily Weather History Graph

Search for Another Location

Airport:

Trip Planner

Search our weather history database for the weather conditions in past years. The results will help you decide how hot, cold, wet, or windy it might be!

Date:

Astronomy

Feb. 17, 2013 Rise Set
Actual Time 7:01 AM MST 5:50 PM MST
Civil Twilight 6:33 AM MST 6:17 PM MST
Nautical Twilight 6:02 AM MST 6:49 PM MST
Astronomical Twilight 5:30 AM MST 7:20 PM MST
Moon 10:56 AM MST (2/17) 12:48 AM MST (2/17)
Length of Visible Light 11h 43m
Length of Day
10h 48m
Waxing Crescent, 49% of the Moon is Illuminated
Feb 17
Waxing Crescent
Feb 17
First Quarter
Feb 25
Full
Mar 4
Last Quarter
Mar 11
New

Hourly Weather History & Observations

Time (MST) Temp. Windchill Dew Point Humidity Pressure Visibility Wind Dir Wind Speed Gust Speed Precip Events Conditions
12:53 AM 12.9 °F - 6.1 °F 74% 30.18 in 10.0 mi Calm Calm - N/A   Clear
1:53 AM 14.0 °F 3.9 °F 7.0 °F 74% 30.14 in 10.0 mi NE 6.9 mph - N/A   Clear
2:53 AM 12.9 °F - 6.1 °F 74% 30.09 in 10.0 mi Calm Calm - N/A   Clear
3:53 AM 10.9 °F - 3.9 °F 73% 30.06 in 10.0 mi Calm Calm - N/A   Clear
4:53 AM 12.0 °F - 3.9 °F 70% 30.05 in 10.0 mi Calm Calm - N/A   Clear
5:53 AM 14.0 °F - 5.0 °F 67% 30.04 in 10.0 mi Calm Calm - N/A   Clear
6:53 AM 9.0 °F 0.6 °F 3.0 °F 77% 30.06 in 10.0 mi NE 4.6 mph - N/A   Clear
7:53 AM 10.0 °F 1.8 °F 3.0 °F 73% 30.05 in 10.0 mi NNE 4.6 mph - N/A   Clear
8:53 AM 18.0 °F - 7.0 °F 62% 30.01 in 10.0 mi Calm Calm - N/A   Clear
9:53 AM 27.0 °F 23.0 °F 12.0 °F 53% 29.93 in 10.0 mi ENE 3.5 mph - N/A   Clear
10:53 AM 37.9 °F 32.1 °F 12.9 °F 36% 29.87 in 10.0 mi SW 8.1 mph 17.3 mph N/A   Clear
11:53 AM 43.0 °F 40.3 °F 12.9 °F 30% 29.81 in 10.0 mi Variable 4.6 mph - N/A   Clear
12:53 PM 42.1 °F 35.7 °F 14.0 °F 32% 29.78 in 10.0 mi SSW 11.5 mph - N/A   Clear
1:53 PM 42.1 °F 32.6 °F 12.9 °F 31% 29.75 in 10.0 mi WSW 23.0 mph 29.9 mph N/A   Clear
2:53 PM 42.1 °F 35.7 °F 15.1 °F 34% 29.74 in 10.0 mi West 11.5 mph - N/A   Clear
3:53 PM 39.9 °F 36.7 °F 15.1 °F 36% 29.75 in 10.0 mi West 4.6 mph - N/A   Clear
4:53 PM 37.0 °F 31.6 °F 18.0 °F 46% 29.77 in 10.0 mi West 6.9 mph - N/A   Mostly Cloudy
5:53 PM 34.0 °F 24.6 °F 19.0 °F 54% 29.81 in 10.0 mi NNW 13.8 mph - N/A   Overcast
6:53 PM 30.0 °F 19.1 °F 23.0 °F 75% 29.91 in 10.0 mi NNE 15.0 mph - N/A   Overcast
7:18 PM 30.2 °F 20.2 °F 21.2 °F 69% 29.81 in 5.0 mi North 12.7 mph - 0.00 in Snow Light Snow
7:24 PM 28.4 °F 21.2 °F 23.0 °F 80% 29.82 in 1.8 mi NNW 6.9 mph - 0.00 in Snow Light Snow
7:36 PM 28.4 °F 20.4 °F 21.2 °F 74% 29.84 in 1.5 mi North 8.1 mph - 0.00 in Snow Light Snow
7:40 PM 28.4 °F 18.0 °F 19.4 °F 69% 29.84 in 2.5 mi North 12.7 mph 19.6 mph 0.00 in Snow Light Snow
7:53 PM 27.0 °F 15.2 °F 19.0 °F 72% 29.98 in 1.8 mi NNW 15.0 mph 23.0 mph 0.00 in Snow Light Snow
8:03 PM 26.6 °F 19.1 °F 19.4 °F 74% 29.86 in 2.5 mi NNE 6.9 mph - 0.00 in Snow Light Snow
8:31 PM 24.8 °F - 21.2 °F 86% 29.87 in 5.0 mi Calm Calm - 0.00 in Snow Light Snow
8:40 PM 26.6 °F 20.0 °F 19.4 °F 74% 29.88 in 9.0 mi West 5.8 mph - 0.00 in Snow Light Snow
8:53 PM 26.1 °F 17.6 °F 15.1 °F 63% 29.99 in 9.0 mi North 8.1 mph 18.4 mph 0.00 in   Overcast
10:53 PM 21.9 °F - 15.1 °F 75% 29.94 in 10.0 mi Calm Calm - N/A   Overcast
11:53 PM 17.1 °F - 12.0 °F 81% 29.95 in 10.0 mi Calm Calm - N/A   Overcast